Regional Weather Roundup
Issued by NWS Cleveland, OH

Home | Current Version | Previous Version | Graphics & Text | Print | Product List | Glossary On
Versions: 1 2 3 4 5 6 7 8 9 10 11 12 13 14 15 16 17 18 19 20 21 22 23 24 25 26 27 28 29 30 31 32 33 34 35 36 37 38 39 40 41 42 43 44 45 46 47 48 49 50
000
ASUS41 KCLE 170210
RWRCLE
OHIO REGIONAL WEATHER ROUNDUP
NATIONAL WEATHER SERVICE WILMINGTON, OH
900 PM EST MON JAN 16 2017

NOTE: "FAIR" INDICATES FEW OR NO CLOUDS BELOW 12,000 FEET WITH NO
SIGNIFICANT WEATHER AND/OR OBSTRUCTIONS TO VISIBILITY.

OHZ001>008-015>018-024>027-034-035-043-044-170300-
   NORTHWEST OHIO

CITY           SKY/WX    TMP DP  RH WIND       PRES   REMARKS
DEFIANCE       LGT RAIN  37  34  89 E7        30.12F FOG
FINDLAY        CLOUDY    40  36  86 SE9       30.12F FOG
TOLEDO EXPRESS LGT RAIN  34  34 100 E5        30.14F FOG     WCI  30
TOLEDO EXEC    CLOUDY    35  35 100 E6        30.16S FOG
LIMA           LGT RAIN  42  42 100 SE12      30.10F FOG
$$

OHZ009>014-019>023-028>033-038-089-170300-
   NORTHEAST OHIO

CITY           SKY/WX    TMP DP  RH WIND       PRES   REMARKS
CLE-HOPKINS    CLOUDY    40  33  76 SE10      30.20F
CLE-LAKEFRONT  CLOUDY    39  33  79 SE8       30.18F
CUY CO. ARPT   CLOUDY    39  34  81 SE8       30.19F
LORAIN-ELYRIA  CLOUDY    37  33  85 S6        30.17F
ASHTABULA      CLOUDY    36  27  69 CALM      30.21S
AKRON-CANTON   CLOUDY    38  33  82 SE6       30.19F HAZE
WOOSTER        CLOUDY    36  33  89 SE5       30.18F
MANSFIELD      CLOUDY    38  37  97 S13       30.16S FOG
YOUNGSTOWN     CLOUDY    36  32  85 S6        30.20S
$$

OHZ042-051>053-060>062-070>072-077>081-170300-
  SOUTHWEST OHIO

CITY           SKY/WX    TMP DP  RH WIND       PRES   REMARKS
CINC-COVINGTON CLOUDY    50  50 100 E6        30.09F FOG
CINC-LUNKEN    CLOUDY    48  48 100 CALM      30.12F FOG
HAMILTON       CLOUDY    49  49 100 CALM      30.12F FOG
DAYTON         LGT RAIN  46  46 100 SE10      30.12F FOG
WRIGHT-PAT AFB LGT RAIN  47  47 100 SE7       30.12F
DAYTON GENERAL LGT RAIN  50  49  96 E8        30.11F
WILMINGTON     LGT RAIN  47  46  97 SE5       30.13F FOG
$$

OHZ036-037-039>041-045>050-054>059-063>069-073>076-082>088-170300-
  CENTRAL AND SOUTHEAST OHIO

CITY           SKY/WX    TMP DP  RH WIND       PRES   REMARKS
COLUMBUS       LGT RAIN  45  45 100 E5        30.16F
OSU AIRPORT    LGT RAIN  45  44  97 SE6       30.16S
BOLTON FIELD   NOT AVBL
RICKENBACK AFB RAIN      43  43 100 CALM      30.17R
NEWARK         FAIR      41  38  89 CALM      30.17F FOG
MARION         CLOUDY    41  38  89 S9        30.16S FOG
LANCASTER      CLOUDY    45  43  93 CALM      30.17F
ZANESVILLE     FAIR      41  40  96 CALM      30.18F FOG
NEW PHILLY     CLOUDY    39  36  89 CALM      30.21S
$$



USA.gov is the U.S. government's official web portal to all federal, state and local government web resources and services.